Wind_Speed
37 37 37 39 41 42 42 43 42 41 42 42 42 43 44 46 46 45 45 47 47 48 48 49 51 51 52 53 54 55 55 55 56 57 59 60 61 60 60 61 61 62 61
36 37 38 40 41 42 43 43 43 44 44 44 44 45 46 47 47 46 47 48 50 51 51 52 52 53 53 53 54 54 55 55 55 57 58 58 58 59 58 58 57 56 54
38 38 39 41 42 43 43 44 44 45 45 45 46 47 48 47 47 48 49 50 51 51 52 53 53 53 54 54 55 55 56 56 57 57 56 56 56 55 53 52 51 50 49
39 40 41 42 43 43 44 44 45 46 46 46 47 47 47 48 48 49 49 51 51 52 53 54 54 55 55 54 54 55 55 55 54 54 52 52 51 49 48 46 45 44 43
40 41 41 42 43 43 43 44 44 44 45 45 45 45 46 47 48 49 50 51 52 53 53 53 53 53 52 52 51 50 50 49 48 47 45 44 42 41 40 38 37 37 37
39 40 40 41 41 41 41 42 42 42 43 43 43 44 45 46 47 48 49 50 51 51 50 49 49 48 47 47 45 45 43 41 39 37 36 35 34 33 32 32 31 30 30
36 36 37 37 38 38 38 38 39 39 39 40 41 42 43 44 45 47 47 47 46 45 44 43 42 41 39 37 35 33 31 29 29 29 28 26 26 25 26 26 26 26 27
33 34 34 34 35 35 35 36 36 36 37 38 39 40 41 42 42 42 41 40 39 37 37 35 33 31 29 27 26 24 22 21 20 20 20 20 20 21 22 23 23 23 24
30 30 30 30 30 31 31 31 32 33 34 35 36 37 38 38 37 36 34 33 32 31 29 26 23 21 20 19 18 17 16 15 15 16 17 18 19 20 21 21 21 22 22
26 27 27 27 27 27 28 29 30 30 31 31 32 32 32 31 30 29 28 27 25 22 20 17 16 15 15 14 13 13 12 13 14 15 16 17 18 19 20 20 20 21 21
23 24 24 24 24 25 26 26 26 27 27 28 28 28 27 27 26 24 22 20 17 15 14 13 13 12 12 12 12 12 12 13 14 14 15 16 17 18 18 19 20 20 21
20 21 21 21 22 22 23 23 23 24 24 24 23 23 23 21 20 18 16 14 13 12 11 11 11 11 12 12 12 12 13 13 13 14 14 15 16 17 18 19 20 20 20
19 19 19 20 20 20 21 21 21 21 21 20 20 20 18 17 16 14 13 12 10 10 10 10 11 11 12 12 13 13 13 13 14 14 15 16 17 17 18 19 19 19 19
18 18 18 18 18 18 18 18 18 18 18 18 17 16 15 14 13 12 11 10 9 10 10 10 10 10 11 12 12 13 13 14 14 15 16 16 17 17 18 18 19 18 18
17 17 16 16 16 17 17 16 16 16 16 15 14 13 12 11 10 10 9 8 8 8 9 10 10 10 11 11 12 13 13 14 15 15 15 16 16 16 16 17 17 16 17
16 15 15 15 15 15 15 14 14 14 14 13 11 10 9 9 8 8 7 7 7 8 9 9 10 11 11 11 12 13 14 14 15 15 15 15 15 14 15 15 14 15 16
14 14 14 14 14 13 12 12 12 11 11 9 8 8 7 7 7 7 7 7 7 8 9 9 10 11 11 11 12 13 14 15 15 15 15 14 14 14 13 13 13 14 15
13 12 13 12 12 11 10 9 9 9 8 7 6 6 6 6 6 6 7 8 8 8 9 9 10 11 11 11 12 13 14 15 15 15 15 14 13 13 13 12 12 12 13
11 11 11 10 9 8 8 7 7 7 6 5 5 5 5 5 6 6 7 8 8 8 9 10 10 11 11 12 13 14 15 15 15 14 14 14 13 12 12 11 11 11 12
9 8 8 8 7 6 6 6 6 6 5 5 4 5 5 5 6 6 7 7 8 8 9 10 11 11 12 13 13 14 14 15 14 14 13 13 13 12 11 11 10 10 11
6 6 6 6 5 5 5 5 5 5 5 4 4 4 5 5 6 7 7 7 8 9 10 10 11 11 12 13 14 14 14 14 14 14 13 13 12 12 11 10 10 10 11
5 5 4 5 4 4 4 5 5 4 4 4 4 4 5 5 6 6 7 7 8 9 10 11 11 11 12 13 13 14 14 14 14 13 13 13 12 11 10 10 10 10 10
6 5 5 5 5 4 4 4 4 4 4 4 4 4 4 5 5 6 7 8 9 9 10 11 11 11 12 13 13 13 14 14 14 13 13 12 12 11 10 10 10 10 10
6 5 5 5 5 5 4 4 4 4 4 4 4 4 4 5 5 6 7 8 9 9 10 10 11 12 12 12 13 13 13 14 13 13 12 12 11 11 11 10 10 10 10
6 5 5 4 4 4 4 4 4 4 4 4 4 4 4 4 5 6 7 8 9 9 10 10 11 11 12 12 12 13 13 13 13 13 12 12 11 11 11 11 11 11 11
8 6 5 4 4 3 3 3 3 3 3 3 4 4 4 5 5 6 7 8 8 9 10 10 11 11 12 12 12 13 13 13 13 13 12 12 12 12 12 12 12 12 12
Wind_Direction
269 270 274 277 280 283 286 288 290 292 293 294 294 293 294 294 293 290 288 288 287 287 286 286 286 285 284 284 283 283 283 284 283 283 283 283 283 283 284 286 287 287 288
270 273 275 278 281 283 286 288 290 291 291 290 289 291 291 291 290 288 286 286 286 287 287 288 288 288 286 285 285 286 286 286 285 285 285 285 285 286 288 290 291 292 293
273 276 278 279 282 284 286 287 288 287 287 288 288 289 289 288 288 287 289 289 289 289 289 289 289 289 288 286 286 287 287 287 287 287 288 288 288 289 290 291 293 295 296
274 276 278 280 282 284 284 285 285 286 287 287 288 289 289 288 290 290 292 292 292 292 292 290 290 291 290 289 289 289 289 289 289 290 291 291 292 293 294 295 296 297 298
275 276 277 278 280 281 282 284 285 286 287 288 289 290 289 291 293 294 295 295 295 295 294 292 292 293 292 292 292 292 292 292 293 293 294 294 295 296 297 298 298 299 300
274 275 276 277 278 280 282 284 285 287 289 290 291 293 295 296 298 298 298 298 298 297 295 294 294 294 294 295 295 297 297 296 297 297 297 298 299 300 300 301 303 303 304
273 275 276 278 279 281 284 286 287 289 291 294 296 298 300 300 300 300 300 300 300 299 299 298 298 298 299 301 303 304 304 304 303 303 304 304 305 307 308 309 310 311 312
274 276 278 279 281 284 286 288 290 293 296 298 299 300 301 302 303 303 304 303 303 303 302 302 303 305 307 308 310 311 312 313 315 316 315 315 317 319 320 320 321 321 321
276 278 280 282 284 287 289 292 294 297 300 301 303 304 305 306 307 307 307 307 307 308 309 310 313 316 319 321 322 323 324 326 328 328 329 332 333 332 332 330 330 331 330
282 282 284 287 289 291 294 297 299 301 303 305 306 308 310 310 310 310 311 312 313 316 320 323 326 330 334 337 338 338 339 340 340 341 343 344 342 340 337 337 336 336 336
284 287 289 291 293 296 298 300 302 304 306 308 310 312 313 313 314 315 316 318 322 326 331 336 340 344 348 351 352 353 353 351 352 352 351 348 344 342 341 341 340 340 341
288 291 294 296 297 299 301 303 305 306 309 311 313 315 317 317 319 320 322 325 330 335 340 345 349 353 357 359 358 357 357 358 359 356 352 349 347 346 345 344 343 343 344
293 294 295 296 298 300 302 304 306 308 310 312 314 317 319 321 324 325 326 329 334 339 343 347 352 356 358 359 358 356 357 357 356 353 351 349 349 348 347 346 347 349 350
295 294 294 296 298 300 303 305 307 308 311 313 316 319 321 324 327 328 329 332 336 342 348 353 357 0 0 358 358 356 356 354 352 350 350 350 350 350 350 350 352 355 358
294 293 294 297 299 302 304 305 306 309 312 315 318 320 323 327 331 334 338 344 350 354 358 2 2 0 358 355 354 354 353 352 351 350 349 348 349 351 352 353 357 2 4
293 292 293 297 300 302 303 305 307 309 312 315 317 320 324 328 334 341 348 355 0 1 0 0 359 357 354 353 354 354 354 353 351 350 349 349 350 352 355 358 2 5 8
293 292 294 298 301 302 302 305 309 311 313 316 321 326 329 332 338 346 352 356 357 358 359 358 357 356 355 355 355 353 352 351 351 350 351 351 353 355 358 1 5 7 10
292 293 296 299 301 302 304 307 311 315 317 319 326 331 333 336 342 348 352 353 354 356 358 357 357 357 357 356 354 352 351 350 351 353 355 355 356 358 1 5 8 11 15
293 292 295 298 300 302 305 310 314 318 320 323 328 332 334 338 342 348 351 352 353 355 356 356 356 357 357 356 353 352 352 353 354 355 357 359 360 2 6 10 12 14 17
298 295 295 299 303 305 308 313 315 318 324 328 332 336 339 341 343 346 349 351 353 354 354 355 355 355 355 355 354 354 355 357 358 359 360 2 5 6 10 14 18 19 21
314 307 305 308 309 311 313 317 319 317 321 330 334 334 335 337 342 346 349 352 353 353 353 355 355 355 356 356 356 357 359 0 2 3 4 5 7 9 14 19 22 25 27
324 319 315 319 318 315 316 321 325 325 325 330 333 334 336 340 345 350 352 354 354 355 357 356 356 356 357 358 359 0 2 3 5 6 7 9 10 13 18 22 27 30 32
326 325 323 323 323 318 315 318 325 330 330 331 332 334 338 343 348 352 355 355 356 358 360 360 360 359 360 1 3 4 6 7 8 9 11 14 16 19 24 28 32 35 37
334 326 322 320 319 317 315 315 320 327 330 330 334 338 341 345 350 355 357 357 358 1 3 3 3 3 4 5 7 9 10 11 13 15 18 22 24 26 31 36 38 40 41
350 342 334 329 327 324 323 321 321 324 329 333 339 346 351 355 357 356 357 0 4 6 7 7 6 7 8 9 11 13 14 16 19 22 25 29 32 34 39 43 45 46 48
8 3 355 348 343 339 336 335 334 334 338 344 350 355 359 2 3 4 7 10 12 12 12 12 11 11 13 15 16 17 21 24 27 30 33 37 41 44 48 51 53 54 56
Height
5803 5803 5803 5803 5802 5801 5800 5799 5797 5795 5793 5791 5789 5788 5785 5783 5781 5778 5776 5773 5770 5767 5764 5762 5758 5754 5750 5745 5741 5737 5732 5729 5725 5719 5713 5708 5703 5699 5693 5689 5684 5679 5673
5796 5796 5795 5795 5794 5793 5791 5790 5788 5786 5784 5782 5780 5778 5776 5773 5770 5768 5765 5762 5759 5756 5752 5748 5744 5740 5736 5731 5726 5722 5717 5713 5708 5703 5697 5692 5687 5683 5678 5673 5668 5663 5658
5788 5788 5787 5786 5785 5783 5782 5780 5778 5776 5774 5772 5769 5767 5765 5762 5759 5757 5753 5750 5746 5742 5738 5734 5730 5726 5721 5716 5711 5706 5701 5696 5691 5687 5682 5677 5672 5668 5664 5659 5655 5650 5645
5779 5779 5778 5777 5775 5774 5772 5770 5768 5766 5764 5762 5759 5757 5754 5751 5748 5744 5741 5737 5733 5728 5724 5719 5715 5710 5705 5700 5695 5690 5685 5680 5676 5671 5667 5662 5658 5654 5651 5647 5643 5637 5633
5769 5769 5768 5767 5765 5764 5762 5760 5758 5756 5754 5751 5749 5746 5743 5740 5736 5732 5728 5724 5719 5714 5709 5705 5700 5695 5689 5684 5679 5674 5670 5665 5661 5657 5653 5650 5646 5642 5639 5635 5632 5628 5623
5760 5759 5758 5757 5755 5754 5752 5750 5748 5746 5744 5741 5739 5735 5732 5728 5724 5720 5716 5711 5706 5701 5696 5690 5685 5680 5675 5670 5665 5660 5656 5653 5649 5646 5643 5640 5636 5633 5630 5626 5623 5619 5616
5750 5750 5749 5748 5746 5745 5743 5741 5739 5737 5735 5732 5729 5725 5721 5718 5713 5709 5704 5699 5693 5688 5683 5678 5672 5668 5663 5658 5654 5650 5646 5643 5640 5638 5634 5632 5629 5626 5623 5620 5616 5613 5609
5742 5741 5740 5739 5738 5736 5735 5733 5731 5728 5726 5723 5720 5716 5712 5708 5703 5698 5693 5688 5683 5677 5672 5667 5663 5658 5654 5650 5647 5643 5640 5637 5635 5632 5630 5627 5624 5621 5618 5615 5611 5608 5603
5734 5733 5732 5731 5729 5728 5726 5724 5722 5720 5717 5714 5711 5707 5703 5698 5694 5689 5684 5679 5674 5669 5664 5660 5656 5653 5649 5645 5642 5639 5637 5634 5632 5629 5626 5623 5620 5617 5614 5611 5607 5604 5600
5727 5726 5725 5723 5722 5721 5719 5717 5715 5712 5709 5706 5703 5699 5695 5691 5686 5681 5677 5672 5668 5663 5660 5656 5653 5649 5646 5643 5640 5638 5635 5633 5630 5627 5624 5621 5618 5615 5612 5608 5604 5601 5597
5720 5719 5718 5717 5715 5714 5712 5710 5708 5705 5702 5700 5696 5693 5689 5684 5680 5676 5671 5668 5664 5660 5657 5654 5651 5648 5645 5643 5640 5637 5635 5632 5629 5626 5624 5621 5618 5614 5610 5607 5603 5599 5594
5714 5713 5712 5711 5709 5708 5706 5704 5701 5699 5696 5693 5690 5687 5683 5679 5676 5672 5668 5665 5662 5659 5656 5653 5651 5648 5645 5642 5640 5637 5634 5632 5629 5626 5623 5620 5617 5613 5609 5605 5601 5597 5593
5709 5707 5706 5705 5704 5702 5700 5698 5696 5694 5691 5688 5686 5683 5679 5676 5673 5669 5666 5663 5661 5658 5655 5653 5650 5648 5645 5642 5640 5637 5634 5631 5629 5626 5623 5620 5616 5612 5609 5605 5601 5596 5592
5703 5702 5701 5700 5698 5697 5695 5693 5691 5689 5687 5684 5682 5679 5676 5673 5671 5668 5665 5662 5660 5658 5655 5652 5650 5647 5645 5642 5640 5637 5634 5631 5628 5625 5622 5619 5615 5612 5608 5604 5600 5596 5592
5698 5697 5696 5695 5693 5692 5690 5689 5687 5685 5683 5681 5678 5676 5674 5672 5669 5666 5664 5662 5659 5657 5655 5652 5650 5647 5645 5642 5640 5637 5634 5631 5628 5625 5622 5618 5615 5611 5608 5604 5600 5596 5592
5693 5692 5691 5690 5689 5688 5686 5685 5683 5681 5679 5677 5675 5674 5672 5670 5668 5666 5664 5662 5659 5657 5655 5653 5650 5648 5645 5643 5640 5637 5634 5631 5628 5625 5621 5618 5614 5611 5607 5604 5600 5597 5593
5688 5688 5687 5686 5685 5684 5683 5681 5680 5678 5676 5675 5673 5672 5670 5669 5667 5666 5664 5662 5659 5657 5655 5653 5651 5648 5646 5643 5640 5637 5634 5631 5628 5624 5621 5617 5614 5611 5607 5604 5601 5598 5594
5684 5684 5683 5682 5682 5681 5680 5679 5677 5676 5674 5673 5672 5670 5669 5668 5667 5665 5663 5662 5660 5657 5655 5653 5651 5649 5646 5643 5640 5637 5634 5631 5627 5624 5621 5617 5614 5611 5608 5604 5601 5598 5595
5681 5680 5680 5679 5679 5678 5677 5676 5675 5674 5673 5672 5671 5670 5669 5668 5666 5665 5663 5662 5660 5658 5656 5654 5651 5649 5646 5643 5640 5637 5634 5630 5627 5624 5620 5617 5614 5611 5608 5605 5602 5600 5597
5678 5677 5677 5677 5676 5676 5675 5675 5674 5673 5672 5671 5670 5669 5668 5667 5666 5665 5663 5661 5660 5658 5656 5653 5651 5649 5646 5643 5640 5637 5634 5630 5627 5624 5620 5617 5614 5611 5609 5606 5603 5601 5598
5676 5676 5675 5675 5675 5674 5674 5673 5673 5672 5671 5670 5670 5669 5668 5667 5666 5664 5663 5661 5659 5658 5656 5653 5651 5649 5646 5643 5640 5637 5633 5630 5627 5624 5621 5618 5615 5612 5609 5607 5604 5602 5600
5676 5675 5675 5674 5674 5673 5673 5672 5672 5671 5671 5670 5669 5668 5667 5666 5665 5664 5663 5661 5659 5657 5655 5653 5651 5649 5646 5643 5640 5637 5634 5630 5627 5624 5621 5618 5616 5613 5610 5608 5606 5604 5601
5675 5675 5674 5674 5673 5673 5672 5672 5671 5671 5670 5669 5669 5668 5667 5666 5665 5664 5663 5661 5659 5657 5656 5653 5651 5649 5646 5643 5640 5637 5634 5631 5628 5625 5622 5619 5617 5614 5612 5609 5607 5605 5603
5675 5674 5673 5673 5672 5672 5672 5671 5671 5670 5670 5669 5669 5668 5667 5666 5665 5664 5663 5661 5660 5658 5656 5654 5651 5649 5646 5643 5641 5638 5635 5631 5628 5625 5623 5620 5618 5616 5613 5611 5609 5607 5605
5674 5673 5673 5672 5672 5672 5671 5671 5670 5670 5670 5669 5668 5668 5667 5666 5665 5664 5663 5661 5660 5658 5656 5654 5652 5649 5647 5644 5641 5638 5635 5633 5630 5627 5624 5622 5620 5618 5615 5613 5611 5610 5608
5675 5673 5672 5672 5671 5671 5671 5671 5670 5670 5669 5669 5668 5668 5667 5666 5666 5664 5663 5662 5660 5659 5657 5655 5652 5650 5648 5645 5642 5640 5637 5634 5632 5629 5627 5624 5622 5620 5618 5616 5614 5613 5611